TimePST,TemperatureF,Dew PointF,Humidity,Sea Level PressureIn,VisibilityMPH,Wind Direction,Wind SpeedMPH,Gust SpeedMPH,PrecipitationIn,Events,Conditions,WindDirDegrees,DateUTC
12:44 AM,55.4,53.6,94,29.95,10.0,WSW,10.4,-,N/A,,Mostly Cloudy,250,2013-12-03 08:44:00
12:53 AM,55.9,53.1,90,29.95,10.0,WSW,12.7,-,N/A,,Mostly Cloudy,250,2013-12-03 08:53:00
1:00 AM,55.4,53.6,94,29.95,10.0,West,11.5,-,N/A,,Mostly Cloudy,260,2013-12-03 09:00:00
1:53 AM,54.0,50.0,86,29.95,10.0,West,15.0,-,N/A,,Scattered Clouds,260,2013-12-03 09:53:00
2:53 AM,54.0,48.0,80,29.94,10.0,West,24.2,32.2,N/A,,Mostly Cloudy,280,2013-12-03 10:53:00
3:53 AM,54.0,44.1,69,29.93,10.0,West,15.0,-,N/A,,Overcast,280,2013-12-03 11:53:00
4:53 AM,53.1,42.1,66,29.94,10.0,West,19.6,-,N/A,,Overcast,280,2013-12-03 12:53:00
5:53 AM,52.0,39.9,63,29.95,10.0,West,20.7,-,N/A,,Overcast,280,2013-12-03 13:53:00
6:53 AM,52.0,37.9,59,29.95,10.0,West,21.9,-,N/A,,Overcast,270,2013-12-03 14:53:00
7:53 AM,52.0,37.0,57,29.93,10.0,West,21.9,-,N/A,,Mostly Cloudy,270,2013-12-03 15:53:00
8:53 AM,53.1,37.0,55,29.94,10.0,WNW,19.6,27.6,N/A,,Mostly Cloudy,290,2013-12-03 16:53:00
9:53 AM,53.1,33.1,47,29.93,10.0,NW,13.8,20.7,N/A,,Mostly Cloudy,320,2013-12-03 17:53:00
10:53 AM,53.1,33.1,47,29.93,10.0,NW,9.2,-,N/A,,Mostly Cloudy,320,2013-12-03 18:53:00
11:53 AM,53.1,30.9,43,29.89,10.0,NW,10.4,-,N/A,,Mostly Cloudy,310,2013-12-03 19:53:00
12:53 PM,53.1,30.9,43,29.89,10.0,WNW,10.4,-,N/A,,Mostly Cloudy,300,2013-12-03 20:53:00
1:53 PM,53.1,28.9,40,29.88,10.0,WNW,9.2,-,N/A,,Mostly Cloudy,300,2013-12-03 21:53:00
2:53 PM,54.0,30.0,40,29.87,10.0,WNW,6.9,-,N/A,,Scattered Clouds,300,2013-12-03 22:53:00
3:53 PM,54.0,30.0,40,29.87,10.0,NNW,6.9,-,N/A,,Scattered Clouds,330,2013-12-03 23:53:00
4:53 PM,52.0,33.1,49,29.87,10.0,Calm,Calm,-,N/A,,Partly Cloudy,0,2013-12-04 00:53:00
5:53 PM,50.0,34.0,54,29.88,10.0,WNW,5.8,-,N/A,,Partly Cloudy,300,2013-12-04 01:53:00
6:53 PM,43.0,33.1,68,29.89,10.0,NE,5.8,-,N/A,,Clear,40,2013-12-04 02:53:00
7:53 PM,48.0,36.0,63,29.90,10.0,NW,8.1,-,N/A,,Clear,320,2013-12-04 03:53:00
8:53 PM,46.9,30.9,54,29.92,10.0,NW,5.8,-,N/A,,Clear,320,2013-12-04 04:53:00
9:53 PM,46.9,30.0,52,29.93,10.0,NNW,8.1,-,N/A,,Clear,340,2013-12-04 05:53:00
10:53 PM,46.0,30.9,56,29.94,10.0,NNW,6.9,-,N/A,,Clear,330,2013-12-04 06:53:00
11:53 PM,46.0,30.0,54,29.95,10.0,NW,8.1,-,N/A,,Clear,310,2013-12-04 07:53:00